AHK720 VHHH-ZUUU

Flight info

Callsign AHK720
Flight time N/A
Altitude 36100
Route BEKOL A461 SHL W22 TEPID W24 OSNOV G586 QP B330 ELKAL W179 IGNAK IGNAK9J
Aircraft A339/H-SADE1E2E3GHIJ3J5M1P2RWXY/LB2D1

Departure

Time N/A
Airport Hong Kong International Airport (VHHH)

Arrival

Time 2026-04-28 15:32
Airport Chengdu Shuangliu International Airport (ZUUU)
Time Latitude Longitude Altitude Speed Heading
2026-04-28 15:15 29.51429 104.18739 14223 ft 380 kts 345°
2026-04-28 15:15 29.53949 104.17959 13693 ft 380 kts 345°
2026-04-28 15:15 29.56514 104.17163 13211 ft 377 kts 346°
2026-04-28 15:15 29.59034 104.16378 12776 ft 374 kts 346°
2026-04-28 15:16 29.61517 104.15604 12368 ft 370 kts 346°
2026-04-28 15:16 29.64009 104.14828 11963 ft 366 kts 347°
2026-04-28 15:16 29.66463 104.14066 11559 ft 363 kts 347°
2026-04-28 15:16 29.68875 104.13315 11208 ft 358 kts 347°
2026-04-28 15:17 29.71262 104.12573 10897 ft 352 kts 348°
2026-04-28 15:17 29.73624 104.11839 10601 ft 351 kts 348°
2026-04-28 15:17 29.75994 104.11102 10321 ft 349 kts 348°
2026-04-28 15:17 29.78319 104.10376 10164 ft 338 kts 349°
2026-04-28 15:18 29.80523 104.09688 10153 ft 324 kts 349°
2026-04-28 15:18 29.82677 104.09015 10147 ft 310 kts 349°
2026-04-28 15:18 29.84704 104.08384 10127 ft 297 kts 349°
2026-04-28 15:18 29.86655 104.07776 10095 ft 286 kts 349°
2026-04-28 15:19 29.88564 104.07179 10025 ft 276 kts 350°
2026-04-28 15:19 29.90408 104.06604 9696 ft 277 kts 350°
2026-04-28 15:19 29.92256 104.06030 9340 ft 268 kts 350°
2026-04-28 15:19 29.94011 104.05482 9096 ft 261 kts 350°
2026-04-28 15:20 29.95782 104.04935 8826 ft 261 kts 350°
2026-04-28 15:20 29.97530 104.04391 8564 ft 259 kts 349°
2026-04-28 15:20 29.99254 104.03855 8373 ft 256 kts 349°
2026-04-28 15:20 30.00962 104.03320 8102 ft 250 kts 349°
2026-04-28 15:21 30.02622 104.02801 7769 ft 242 kts 349°
2026-04-28 15:21 30.04190 104.02307 7541 ft 229 kts 349°
2026-04-28 15:21 30.05695 104.01833 7318 ft 218 kts 349°
2026-04-28 15:21 30.07126 104.01384 7110 ft 207 kts 348°
2026-04-28 15:22 30.08520 104.00949 6912 ft 206 kts 348°
2026-04-28 15:22 30.09907 104.00515 6746 ft 206 kts 348°
2026-04-28 15:22 30.11289 104.00084 6525 ft 206 kts 348°
2026-04-28 15:22 30.12670 103.99652 6309 ft 204 kts 348°
2026-04-28 15:23 30.14055 103.99218 6097 ft 204 kts 348°
2026-04-28 15:23 30.15436 103.98788 5892 ft 205 kts 347°
2026-04-28 15:23 30.16818 103.98355 5695 ft 205 kts 347°
2026-04-28 15:23 30.18190 103.97924 5489 ft 205 kts 346°
2026-04-28 15:24 30.19575 103.97488 5279 ft 205 kts 346°
2026-04-28 15:24 30.20945 103.97057 5058 ft 203 kts 346°
2026-04-28 15:24 30.22306 103.96629 4962 ft 203 kts 346°
2026-04-28 15:24 30.23632 103.96211 4949 ft 187 kts 346°
2026-04-28 15:25 30.24843 103.95828 4939 ft 176 kts 346°
2026-04-28 15:25 30.26058 103.95446 4960 ft 183 kts 346°
2026-04-28 15:25 30.27290 103.95003 4950 ft 185 kts 333°
2026-04-28 15:25 30.28226 103.94007 4951 ft 189 kts 302°
2026-04-28 15:26 30.28776 103.92596 4958 ft 191 kts 294°
2026-04-28 15:26 30.29260 103.91160 4895 ft 191 kts 294°
2026-04-28 15:26 30.29734 103.89754 4727 ft 188 kts 294°
2026-04-28 15:26 30.30224 103.88334 4552 ft 187 kts 294°
2026-04-28 15:27 30.30715 103.86951 4378 ft 186 kts 295°
2026-04-28 15:27 30.31241 103.85572 4199 ft 184 kts 305°
2026-04-28 15:27 30.32242 103.84766 4012 ft 182 kts 354°
2026-04-28 15:27 30.33508 103.84989 3976 ft 185 kts 17°
2026-04-28 15:28 30.34716 103.85547 3947 ft 186 kts 22°
2026-04-28 15:28 30.35896 103.86150 3935 ft 185 kts 22°
2026-04-28 15:28 30.37085 103.86746 3936 ft 185 kts 21°
2026-04-28 15:28 30.38245 103.87304 3908 ft 178 kts 21°
2026-04-28 15:29 30.39407 103.87849 3906 ft 175 kts 20°
2026-04-28 15:29 30.40489 103.88351 3884 ft 161 kts 20°
2026-04-28 15:29 30.41524 103.88829 3804 ft 160 kts 20°
2026-04-28 15:29 30.42559 103.89307 3591 ft 158 kts 19°
2026-04-28 15:30 30.43579 103.89779 3384 ft 158 kts 20°
2026-04-28 15:30 30.44606 103.90254 3175 ft 157 kts 19°
2026-04-28 15:30 30.45614 103.90722 2970 ft 157 kts 19°
2026-04-28 15:30 30.46631 103.91195 2767 ft 157 kts 19°
2026-04-28 15:31 30.47640 103.91663 2560 ft 155 kts 20°
2026-04-28 15:31 30.48652 103.92134 2354 ft 155 kts 20°
2026-04-28 15:31 30.49650 103.92598 2156 ft 154 kts 20°
2026-04-28 15:31 30.50648 103.93061 1948 ft 154 kts 21°
2026-04-28 15:32 30.51640 103.93525 1737 ft 154 kts 21°
2026-04-28 15:32 30.52616 103.93973 1646 ft 143 kts 22°
2026-04-28 15:32 30.53422 103.94352 1645 ft 101 kts 21°
2026-04-28 15:32 30.53909 103.94578 1645 ft 48 kts 22°
2026-04-28 15:33 30.54124 103.94625 1645 ft 26 kts 355°
2026-04-28 15:33 30.54270 103.94603 1645 ft 11 kts 351°
2026-04-28 15:33 30.54299 103.94597 1645 ft 3 kts 351°
2026-04-28 15:33 30.54345 103.94592 1645 ft 9 kts 358°
2026-04-28 15:34 30.54423 103.94600 1645 ft 13 kts 12°
2026-04-28 15:34 30.54522 103.94641 1645 ft 16 kts 22°
2026-04-28 15:34 30.54639 103.94694 1645 ft 17 kts 21°
2026-04-28 15:34 30.54753 103.94747 1646 ft 15 kts 19°
2026-04-28 15:35 30.54839 103.94723 1646 ft 6 kts 317°
2026-04-28 15:35 30.54862 103.94677 1645 ft 9 kts 306°
2026-04-28 15:35 30.54925 103.94630 1645 ft 12 kts 337°
2026-04-28 15:36 30.55017 103.94585 1645 ft 16 kts 336°
2026-04-28 15:36 30.55140 103.94523 1646 ft 22 kts 336°
2026-04-28 15:36 30.55297 103.94445 1646 ft 25 kts 336°
2026-04-28 15:36 30.55453 103.94365 1646 ft 23 kts 336°
2026-04-28 15:37 30.55600 103.94292 1646 ft 22 kts 336°
2026-04-28 15:37 30.55739 103.94222 1646 ft 20 kts 339°
2026-04-28 15:37 30.55880 103.94216 1646 ft 20 kts 14°
2026-04-28 15:37 30.56005 103.94268 1646 ft 17 kts 21°
2026-04-28 15:38 30.56119 103.94318 1646 ft 17 kts 20°
2026-04-28 15:38 30.56238 103.94373 1646 ft 18 kts 21°
2026-04-28 15:38 30.56362 103.94430 1646 ft 19 kts 22°
2026-04-28 15:38 30.56491 103.94491 1646 ft 19 kts 21°
2026-04-28 15:39 30.56510 103.94499 1646 ft 0 kts 22°
2026-04-28 15:39 30.56516 103.94502 1646 ft 2 kts 23°
2026-04-28 15:39 30.56543 103.94516 1646 ft 6 kts 23°
2026-04-28 15:40 30.56592 103.94540 1646 ft 9 kts 22°
2026-04-28 15:40 30.56660 103.94573 1646 ft 11 kts 22°
2026-04-28 15:40 30.56745 103.94612 1646 ft 14 kts 21°
2026-04-28 15:40 30.56805 103.94689 1646 ft 14 kts 99°
2026-04-28 15:41 30.56773 103.94786 1646 ft 10 kts 112°
2026-04-28 15:41 30.56737 103.94887 1646 ft 16 kts 113°
2026-04-28 15:41 30.56689 103.95023 1646 ft 20 kts 111°
2026-04-28 15:41 30.56631 103.95191 1646 ft 24 kts 112°
2026-04-28 15:42 30.56565 103.95381 1646 ft 25 kts 112°
2026-04-28 15:42 30.56496 103.95432 1646 ft 10 kts 192°
2026-04-28 15:42 30.56465 103.95449 1646 ft 4 kts 132°
2026-04-28 15:42 30.56455 103.95466 1646 ft 1 kts 120°
2026-04-28 15:43 30.56452 103.95473 1646 ft 0 kts 118°
2026-04-28 15:43 30.56448 103.95482 1646 ft 0 kts 112°
2026-04-28 15:43 30.56446 103.95486 1646 ft 0 kts 112°
2026-04-28 15:43 30.56445 103.95490 1646 ft 0 kts 112°